Flag for Canada Weather past 2 weeks in Cranbrook, British Columbia, Canada

Now
55 °F

Clear.


Feels Like: 52 °F
Forecast: 48 / 80 °F
Wind: 14 mph from Northwest

Location: Cranbrook

Current Time: Jul 26, 2014 at 3:53:07 AM

Latest Report: Jul 26, 2014 at 3:00 AM


Visibility: 25 mi

Pressure: 30.10 "Hg

Humidity: 55%

Dew point: 39 °F

Location of CranbrookLocation

Historic Weather in Cranbrook — Graph

°F

Cranbrook temperature yesterday

Maximum temperature yesterday: 73 °F (at 2:00 PM)
Minimum temperature yesterday: 50 °F (at 1:00 AM)
Average temperature yesterday: 62 °F

Past Weeks' High & Low Weather Summary

 TemperatureHumidityPressure
High95 °F (Jul 13, 5:00 PM)94% (Jul 21, 6:00 AM)30.22 "Hg (Jul 21, 6:00 AM)
Low50 °F (Jul 21, 6:00 AM)12% (Jul 12, 5:00 PM)29.62 "Hg (Jul 17, 5:00 PM)
Average71 °F44%29.94 "Hg
* Reported Jul 11 2:00 AM — Jul 26 2:00 AM, Cranbrook, Weather by CustomWeather, © 2014

Note: Actual official high and low records may vary slightly from our data, if they occured in-between our weather recording intervals... More about our weather records

Advertising

Cranbrook weather history for previous 24 hours

 ConditionsComfort  
Time TempWeatherWind HumidityBarometerVisibility
2:00 AM
Jul 26
54 °FClear.7 mph63%30.09 "Hg25 mi
1:00 AM57 °FClear.10 mph51%30.08 "Hg25 mi
12:00 AM57 °FClear.5 mph51%30.08 "Hg25 mi
11:00 PM
Jul 25
61 °FPassing clouds.8 mph45%30.05 "Hg25 mi
10:00 PM63 °FPassing clouds.8 mph42%30.04 "Hg25 mi
9:00 PM66 °FPassing clouds.9 mph35%30.03 "Hg25 mi
8:00 PM70 °FPassing clouds.9 mph31%30.01 "Hg25 mi
7:00 PM72 °FPassing clouds.12 mph29%30.01 "Hg25 mi
6:00 PM72 °FPassing clouds.10 mph27%30.00 "Hg25 mi
5:00 PM72 °FPassing clouds.14 mph27%29.99 "Hg25 mi
4:00 PM73 °FScattered clouds.9 mph25%29.98 "Hg25 mi
3:00 PM72 °FScattered clouds.16 mph29%29.96 "Hg25 mi
2:00 PM73 °FScattered clouds.13 mph27%29.96 "Hg25 mi
1:00 PM70 °FScattered clouds.9 mph31%29.96 "Hg25 mi
12:00 PM68 °FPassing clouds.12 mph33%29.96 "Hg25 mi
11:00 AM64 °FPartly sunny.13 mph37%29.97 "Hg25 mi
10:00 AM63 °FScattered clouds.9 mph39%29.97 "Hg25 mi
9:00 AM63 °FScattered clouds.12 mph49%29.98 "Hg25 mi
8:00 AM57 °FScattered clouds.9 mph55%29.99 "Hg25 mi
7:00 AM52 °FPartly cloudy.6 mph67%29.99 "Hg25 mi
6:00 AM52 °FPassing clouds.9 mph67%29.99 "Hg25 mi
5:00 AM54 °FPassing clouds.8 mph58%29.99 "Hg25 mi
4:00 AM52 °FPassing clouds.6 mph67%30.00 "Hg25 mi
3:00 AM50 °FPassing clouds.3 mph71%30.01 "Hg25 mi
Weather by CustomWeather, © 2014

See weather overviewHow to use our weather pages